Time,TemperatureF,DewpointF,PressureIn,WindDirection,WindDirectionDegrees,WindSpeedMPH,WindSpeedGustMPH,Humidity,HourlyPrecipIn,Conditions,Clouds,dailyrainin,SoftwareType,DateUTC
2013-08-23 00:13:00,71.6,70.0,30.06,NW,320,0.0,-999.0,94,-99.99,,,0.00,weatherlink.com 1.10,2013-08-23 04:13:00,
2013-08-23 00:34:00,71.6,70.0,30.06,NW,320,0.0,-999.0,94,-99.99,,,0.00,weatherlink.com 1.10,2013-08-23 04:34:00,
2013-08-23 00:43:00,71.7,70.0,30.06,NW,320,0.0,-999.0,95,-99.99,,,0.00,weatherlink.com 1.10,2013-08-23 04:43:00,
2013-08-23 00:58:00,71.6,70.0,30.06,NW,320,0.0,-999.0,94,-99.99,,,0.00,weatherlink.com 1.10,2013-08-23 04:58:00,
2013-08-23 01:13:00,71.5,70.0,30.06,NW,320,0.0,-999.0,94,-99.99,,,0.00,weatherlink.com 1.10,2013-08-23 05:13:00,
2013-08-23 01:34:00,71.4,70.0,30.06,NW,320,0.0,-999.0,94,-99.99,,,0.00,weatherlink.com 1.10,2013-08-23 05:34:00,
2013-08-23 01:43:00,71.3,70.0,30.05,NW,320,0.0,-999.0,95,-99.99,,,0.00,weatherlink.com 1.10,2013-08-23 05:43:00,
2013-08-23 01:58:00,71.1,70.0,30.05,NW,320,0.0,-999.0,95,-99.99,,,0.00,weatherlink.com 1.10,2013-08-23 05:58:00,
2013-08-23 02:13:00,71.1,70.0,30.05,NW,320,0.0,-999.0,95,-99.99,,,0.00,weatherlink.com 1.10,2013-08-23 06:13:00,
2013-08-23 02:34:00,71.0,70.0,30.05,NW,320,0.0,-999.0,95,-99.99,,,0.00,weatherlink.com 1.10,2013-08-23 06:34:00,
2013-08-23 02:43:00,70.6,69.0,30.05,NW,320,0.0,-999.0,95,-99.99,,,0.00,weatherlink.com 1.10,2013-08-23 06:43:00,
2013-08-23 02:58:00,70.3,69.0,30.03,NW,320,0.0,-999.0,95,-99.99,,,0.00,weatherlink.com 1.10,2013-08-23 06:58:00,
2013-08-23 03:13:00,70.0,69.0,30.03,NW,320,0.0,-999.0,95,-99.99,,,0.00,weatherlink.com 1.10,2013-08-23 07:13:00,
2013-08-23 03:34:00,69.8,68.0,30.03,NW,320,0.0,-999.0,95,-99.99,,,0.00,weatherlink.com 1.10,2013-08-23 07:34:00,
2013-08-23 03:43:00,69.4,68.0,30.03,NW,320,0.0,-999.0,95,-99.99,,,0.00,weatherlink.com 1.10,2013-08-23 07:43:00,
2013-08-23 03:58:00,69.2,68.0,30.03,NW,320,0.0,-999.0,95,-99.99,,,0.00,weatherlink.com 1.10,2013-08-23 07:58:00,
2013-08-23 04:13:00,69.0,68.0,30.04,NW,320,0.0,-999.0,95,-99.99,,,0.00,weatherlink.com 1.10,2013-08-23 08:13:00,
2013-08-23 04:35:00,68.9,68.0,30.04,NW,320,0.0,-999.0,95,-99.99,,,0.00,weatherlink.com 1.10,2013-08-23 08:35:00,
2013-08-23 04:44:00,69.0,68.0,30.04,NW,320,0.0,-999.0,95,-99.99,,,0.00,weatherlink.com 1.10,2013-08-23 08:44:00,
2013-08-23 04:59:00,69.1,68.0,30.04,NW,320,0.0,-999.0,95,-99.99,,,0.00,weatherlink.com 1.10,2013-08-23 08:59:00,
2013-08-23 05:14:00,69.0,68.0,30.04,NW,320,0.0,-999.0,95,-99.99,,,0.00,weatherlink.com 1.10,2013-08-23 09:14:00,
2013-08-23 05:34:00,68.9,68.0,30.04,NW,320,0.0,-999.0,95,-99.99,,,0.00,weatherlink.com 1.10,2013-08-23 09:34:00,
2013-08-23 05:43:00,68.8,67.0,30.05,NW,320,0.0,-999.0,95,-99.99,,,0.00,weatherlink.com 1.10,2013-08-23 09:43:00,
2013-08-23 05:58:00,68.7,67.0,30.05,NW,320,0.0,-999.0,95,-99.99,,,0.00,weatherlink.com 1.10,2013-08-23 09:58:00,
2013-08-23 06:13:00,68.7,68.0,30.05,NW,320,0.0,-999.0,96,-99.99,,,0.00,weatherlink.com 1.10,2013-08-23 10:13:00,
2013-08-23 06:34:00,68.8,68.0,30.05,NW,320,0.0,-999.0,96,-99.99,,,0.00,weatherlink.com 1.10,2013-08-23 10:34:00,
2013-08-23 06:43:00,69.3,68.0,30.06,NW,320,0.0,-999.0,96,-99.99,,,0.00,weatherlink.com 1.10,2013-08-23 10:43:00,
2013-08-23 06:58:00,69.6,69.0,30.07,NW,320,0.0,-999.0,96,-99.99,,,0.00,weatherlink.com 1.10,2013-08-23 10:58:00,
2013-08-23 07:13:00,69.8,69.0,30.07,NW,320,0.0,-999.0,96,-99.99,,,0.00,weatherlink.com 1.10,2013-08-23 11:13:00,
2013-08-23 07:34:00,69.9,69.0,30.07,NW,320,0.0,-999.0,96,-99.99,,,0.00,weatherlink.com 1.10,2013-08-23 11:34:00,
2013-08-23 07:43:00,70.7,70.0,30.08,NW,320,0.0,-999.0,96,-99.99,,,0.00,weatherlink.com 1.10,2013-08-23 11:43:00,
2013-08-23 07:58:00,70.9,70.0,30.08,NW,320,0.0,-999.0,96,-99.99,,,0.00,weatherlink.com 1.10,2013-08-23 11:58:00,
2013-08-23 08:13:00,71.1,70.0,30.08,NW,320,0.0,-999.0,96,-99.99,,,0.00,weatherlink.com 1.10,2013-08-23 12:13:00,
2013-08-23 08:34:00,71.2,70.0,30.08,NW,320,0.0,-999.0,96,-99.99,,,0.00,weatherlink.com 1.10,2013-08-23 12:34:00,
2013-08-23 08:43:00,71.5,70.0,30.09,NW,320,0.0,-999.0,96,-99.99,,,0.00,weatherlink.com 1.10,2013-08-23 12:43:00,
2013-08-23 08:58:00,72.0,71.0,30.09,NW,320,0.0,-999.0,96,-99.99,,,0.00,weatherlink.com 1.10,2013-08-23 12:58:00,
2013-08-23 09:13:00,72.2,71.0,30.09,NW,316,0.0,-999.0,95,-99.99,,,0.00,weatherlink.com 1.10,2013-08-23 13:13:00,
2013-08-23 09:34:00,72.5,71.0,30.09,NW,323,0.0,-999.0,95,-99.99,,,0.00,weatherlink.com 1.10,2013-08-23 13:34:00,
2013-08-23 09:43:00,73.1,71.0,30.08,NW,323,0.0,-999.0,94,-99.99,,,0.00,weatherlink.com 1.10,2013-08-23 13:43:00,
2013-08-23 09:58:00,73.6,71.0,30.09,NNE,30,7.0,-999.0,91,-99.99,,,0.00,weatherlink.com 1.10,2013-08-23 13:58:00,
2013-08-23 10:13:00,73.8,70.0,30.09,NNE,28,0.0,-999.0,89,-99.99,,,0.00,weatherlink.com 1.10,2013-08-23 14:13:00,
2013-08-23 10:35:00,74.1,71.0,30.09,NNE,28,0.0,-999.0,89,-99.99,,,0.00,weatherlink.com 1.10,2013-08-23 14:35:00,
2013-08-23 10:44:00,75.0,71.0,30.09,NNE,26,2.0,-999.0,87,-99.99,,,0.00,weatherlink.com 1.10,2013-08-23 14:44:00,
2013-08-23 10:59:00,75.6,71.0,30.10,NNE,26,0.0,-999.0,85,-99.99,,,0.00,weatherlink.com 1.10,2013-08-23 14:59:00,
2013-08-23 11:14:00,75.9,71.0,30.10,NNE,26,0.0,-999.0,84,-99.99,,,0.00,weatherlink.com 1.10,2013-08-23 15:14:00,
2013-08-23 11:35:00,76.1,71.0,30.10,NNW,348,0.0,-999.0,83,-99.99,,,0.00,weatherlink.com 1.10,2013-08-23 15:35:00,
2013-08-23 11:43:00,76.5,71.0,30.10,NNW,340,0.0,-999.0,84,-99.99,,,0.00,weatherlink.com 1.10,2013-08-23 15:43:00,
2013-08-23 11:58:00,77.0,71.0,30.10,NNW,340,0.0,-999.0,81,-99.99,,,0.00,weatherlink.com 1.10,2013-08-23 15:58:00,
2013-08-23 12:13:00,77.6,71.0,30.10,NNE,29,0.0,-999.0,80,-99.99,,,0.00,weatherlink.com 1.10,2013-08-23 16:13:00,
2013-08-23 12:35:00,78.0,71.0,30.10,NNE,29,0.0,-999.0,80,-99.99,,,0.00,weatherlink.com 1.10,2013-08-23 16:35:00,
2013-08-23 12:44:00,79.2,72.0,30.10,NNE,29,3.0,-999.0,79,-99.99,,,0.00,weatherlink.com 1.10,2013-08-23 16:44:00,
2013-08-23 12:59:00,79.0,71.0,30.09,NE,46,0.0,-999.0,77,-99.99,,,0.00,weatherlink.com 1.10,2013-08-23 16:59:00,
2013-08-23 13:14:00,80.1,70.0,30.09,NE,44,0.0,-999.0,72,-99.99,,,0.00,weatherlink.com 1.10,2013-08-23 17:14:00,
2013-08-23 13:35:00,80.2,70.0,30.09,NNE,30,0.0,-999.0,72,-99.99,,,0.00,weatherlink.com 1.10,2013-08-23 17:35:00,
2013-08-23 13:44:00,80.0,70.0,30.09,NNW,343,3.0,-999.0,72,-99.99,,,0.00,weatherlink.com 1.10,2013-08-23 17:44:00,
2013-08-23 13:59:00,81.9,73.0,30.08,NW,314,4.0,-999.0,75,-99.99,,,0.00,weatherlink.com 1.10,2013-08-23 17:59:00,
2013-08-23 14:14:00,82.1,69.0,30.08,ENE,73,0.0,-999.0,65,-99.99,,,0.00,weatherlink.com 1.10,2013-08-23 18:14:00,
2013-08-23 14:35:00,82.3,70.0,30.08,WSW,251,4.0,-999.0,66,-99.99,,,0.00,weatherlink.com 1.10,2013-08-23 18:35:00,
2013-08-23 14:43:00,83.6,70.0,30.07,North,11,0.0,-999.0,63,-99.99,,,0.00,weatherlink.com 1.10,2013-08-23 18:43:00,
2013-08-23 14:59:00,84.1,71.0,30.07,NNW,341,4.0,-999.0,64,-99.99,,,0.00,weatherlink.com 1.10,2013-08-23 18:59:00,
2013-08-23 15:14:00,83.5,71.0,30.06,North,5,4.0,-999.0,65,-99.99,,,0.00,weatherlink.com 1.10,2013-08-23 19:14:00,
2013-08-23 15:35:00,83.5,71.0,30.06,NW,326,2.0,-999.0,66,-99.99,,,0.00,weatherlink.com 1.10,2013-08-23 19:35:00,
2013-08-23 15:44:00,83.9,71.0,30.05,NNE,25,2.0,-999.0,65,-99.99,,,0.00,weatherlink.com 1.10,2013-08-23 19:44:00,
2013-08-23 15:59:00,84.8,71.0,30.05,North,5,3.0,-999.0,63,-99.99,,,0.00,weatherlink.com 1.10,2013-08-23 19:59:00,
2013-08-23 16:14:00,85.0,69.0,30.05,North,355,4.0,-999.0,58,-99.99,,,0.00,weatherlink.com 1.10,2013-08-23 20:14:00,
2013-08-23 16:35:00,84.8,69.0,30.05,NNW,346,7.0,-999.0,59,-99.99,,,0.00,weatherlink.com 1.10,2013-08-23 20:35:00,
2013-08-23 16:44:00,84.5,69.0,30.04,North,5,2.0,-999.0,59,-99.99,,,0.00,weatherlink.com 1.10,2013-08-23 20:44:00,
2013-08-23 16:59:00,84.2,69.0,30.04,NE,38,0.0,-999.0,61,-99.99,,,0.00,weatherlink.com 1.10,2013-08-23 20:59:00,
2013-08-23 17:14:00,83.8,69.0,30.04,ENE,76,0.0,-999.0,61,-99.99,,,0.00,weatherlink.com 1.10,2013-08-23 21:14:00,
2013-08-23 17:35:00,83.5,70.0,30.04,NNE,31,8.0,-999.0,63,-99.99,,,0.00,weatherlink.com 1.10,2013-08-23 21:35:00,
2013-08-23 17:44:00,84.0,70.0,30.04,NE,36,0.0,-999.0,62,-99.99,,,0.00,weatherlink.com 1.10,2013-08-23 21:44:00,
2013-08-23 17:59:00,83.4,68.0,30.05,NE,49,0.0,-999.0,60,-99.99,,,0.00,weatherlink.com 1.10,2013-08-23 21:59:00,
2013-08-23 18:14:00,83.4,69.0,30.05,NE,37,0.0,-999.0,63,-99.99,,,0.00,weatherlink.com 1.10,2013-08-23 22:14:00,
2013-08-23 18:36:00,83.6,69.0,30.06,NE,38,4.0,-999.0,62,-99.99,,,0.00,weatherlink.com 1.10,2013-08-23 22:36:00,
2013-08-23 18:44:00,83.9,70.0,30.06,NNE,32,0.0,-999.0,63,-99.99,,,0.00,weatherlink.com 1.10,2013-08-23 22:44:00,
2013-08-23 18:59:00,83.9,71.0,30.06,NNE,32,0.0,-999.0,65,-99.99,,,0.00,weatherlink.com 1.10,2013-08-23 22:59:00,
2013-08-23 19:14:00,84.1,71.0,30.06,NNE,32,0.0,-999.0,64,-99.99,,,0.00,weatherlink.com 1.10,2013-08-23 23:14:00,
2013-08-23 19:35:00,84.1,71.0,30.06,NNE,32,0.0,-999.0,65,-99.99,,,0.00,weatherlink.com 1.10,2013-08-23 23:35:00,
2013-08-23 19:44:00,83.1,72.0,30.06,NNE,32,0.0,-999.0,70,-99.99,,,0.00,weatherlink.com 1.10,2013-08-23 23:44:00,
2013-08-23 19:59:00,80.4,72.0,30.06,NNE,32,0.0,-999.0,76,-99.99,,,0.00,weatherlink.com 1.10,2013-08-23 23:59:00,
2013-08-23 20:14:00,77.9,71.0,30.06,NNE,32,0.0,-999.0,79,-99.99,,,0.00,weatherlink.com 1.10,2013-08-24 00:14:00,
2013-08-23 20:35:00,76.9,71.0,30.06,NNE,32,0.0,-999.0,81,-99.99,,,0.00,weatherlink.com 1.10,2013-08-24 00:35:00,
2013-08-23 20:44:00,74.6,70.0,30.07,NNE,32,0.0,-999.0,85,-99.99,,,0.00,weatherlink.com 1.10,2013-08-24 00:44:00,
2013-08-23 20:59:00,73.5,70.0,30.08,NNE,32,0.0,-999.0,87,-99.99,,,0.00,weatherlink.com 1.10,2013-08-24 00:59:00,
2013-08-23 21:14:00,72.5,69.0,30.09,NNE,32,0.0,-999.0,87,-99.99,,,0.00,weatherlink.com 1.10,2013-08-24 01:14:00,
2013-08-23 21:36:00,72.1,68.0,30.09,NNE,32,0.0,-999.0,88,-99.99,,,0.00,weatherlink.com 1.10,2013-08-24 01:36:00,
2013-08-23 21:44:00,71.0,68.0,30.10,NNE,32,0.0,-999.0,90,-99.99,,,0.00,weatherlink.com 1.10,2013-08-24 01:44:00,
2013-08-23 21:59:00,70.4,68.0,30.10,NNE,32,0.0,-999.0,91,-99.99,,,0.00,weatherlink.com 1.10,2013-08-24 01:59:00,
2013-08-23 22:14:00,69.9,67.0,30.11,NNE,32,0.0,-999.0,91,-99.99,,,0.00,weatherlink.com 1.10,2013-08-24 02:14:00,
2013-08-23 22:35:00,69.7,67.0,30.11,NNE,32,0.0,-999.0,92,-99.99,,,0.00,weatherlink.com 1.10,2013-08-24 02:35:00,
2013-08-23 22:44:00,69.1,67.0,30.11,NNE,32,0.0,-999.0,92,-99.99,,,0.00,weatherlink.com 1.10,2013-08-24 02:44:00,
2013-08-23 22:59:00,68.7,66.0,30.12,NNE,32,0.0,-999.0,92,-99.99,,,0.00,weatherlink.com 1.10,2013-08-24 02:59:00,
2013-08-23 23:14:00,68.4,66.0,30.12,NNE,32,0.0,-999.0,93,-99.99,,,0.00,weatherlink.com 1.10,2013-08-24 03:14:00,
2013-08-23 23:36:00,68.2,66.0,30.12,NNE,32,0.0,-999.0,93,-99.99,,,0.00,weatherlink.com 1.10,2013-08-24 03:36:00,
2013-08-23 23:44:00,67.7,66.0,30.12,NNE,32,0.0,-999.0,93,-99.99,,,0.00,weatherlink.com 1.10,2013-08-24 03:44:00,
2013-08-23 23:59:00,67.3,65.0,30.13,NNE,32,0.0,-999.0,93,-99.99,,,0.00,weatherlink.com 1.10,2013-08-24 03:59:00,